Dewpoint
25 28 29 30 31 28 17 21 20 19 40 47 50 53 56 57 59 61 62 64 65 66 68 70 71 71 71 71 69 69 70 70 73 73 72 74 73 73 75 74 75 75 74 74
25 25 30 27 28 28 21 16 19 21 26 45 57 53 55 60 61 64 62 63 65 66 67 68 69 70 69 69 69 69 69 70 71 72 73 71 71 71 74 75 75 75 74 73
30 27 30 26 28 29 26 21 24 24 52 53 50 52 55 61 62 64 64 66 66 67 68 69 68 69 68 68 69 69 70 70 71 71 70 71 70 71 70 73 74 73 72 70
33 37 33 35 39 39 39 46 46 50 55 57 52 49 58 62 62 62 63 64 64 65 66 69 70 67 68 69 70 70 70 70 70 69 68 67 67 68 69 70 71 69 68 66
33 39 37 33 39 38 39 41 46 49 57 49 59 59 59 62 62 62 62 62 61 60 62 62 65 68 69 68 68 68 68 68 68 68 67 66 66 66 68 67 65 64 62 58
33 32 35 44 42 43 40 41 45 47 55 52 58 55 58 61 61 60 59 59 59 57 57 59 61 62 62 61 60 61 63 65 66 66 67 68 67 67 67 65 62 60 57 55
29 35 43 44 45 43 38 45 46 47 55 53 56 59 61 60 58 57 57 56 56 56 56 56 57 57 56 58 57 58 60 60 64 64 64 65 66 66 64 62 60 59 56 54
34 33 33 46 50 47 49 47 47 47 58 57 59 60 59 58 56 55 53 54 54 54 54 55 55 55 54 55 57 58 58 59 60 61 62 64 62 62 62 61 59 58 57 56
43 43 44 43 44 44 45 46 48 50 57 59 59 58 58 57 55 54 52 51 52 53 54 55 55 55 55 57 58 58 58 59 58 60 61 63 62 62 59 59 57 57 57 55
34 40 41 41 42 44 45 44 45 49 52 55 57 57 56 56 55 54 54 52 52 51 53 54 55 55 55 57 59 58 57 58 58 58 52 48 51 58 50 49 58 60 57 56
34 40 44 42 43 42 43 46 46 51 54 56 57 57 57 56 56 56 55 53 52 52 52 53 54 55 57 57 58 57 57 58 56 56 54 48 39 42 42 37 38 50 47 44
37 47 48 47 46 43 41 43 45 48 55 56 58 57 56 55 53 53 54 55 53 53 52 51 51 53 54 57 58 56 56 54 55 58 56 53 46 36 39 39 38 38 38 39
44 46 42 47 45 43 41 43 44 46 53 56 56 55 55 54 54 53 53 52 52 52 54 53 53 52 53 52 51 53 52 55 49 48 46 47 43 38 32 35 39 38 37 37
43 43 43 39 39 42 42 43 46 45 54 56 55 54 53 53 53 54 53 54 53 51 51 51 49 51 52 53 54 56 51 45 44 45 46 45 43 41 35 35 34 33 36 37
41 41 39 44 43 43 42 43 42 43 54 54 55 53 52 52 52 52 53 54 53 51 50 50 51 52 52 51 50 51 49 47 49 45 44 47 46 42 39 42 40 38 35 36
39 38 37 37 39 40 40 41 40 41 53 54 53 53 53 53 52 52 52 53 51 51 51 50 49 50 51 51 51 49 47 45 44 45 39 44 43 42 39 43 43 42 42 41
35 36 36 36 36 36 36 37 39 41 51 53 54 53 55 53 53 53 53 53 54 53 53 51 52 52 51 48 47 44 41 40 45 39 36 37 38 38 40 42 40 41 37 35
37 38 39 40 39 38 37 38 39 41 46 52 56 55 55 55 55 56 56 55 56 54 52 53 53 52 50 47 46 43 39 39 36 35 37 42 41 41 41 39 41 40 34 31
40 40 38 38 39 41 41 41 42 43 44 52 54 56 54 56 56 57 58 57 56 54 52 53 53 52 50 48 47 40 37 37 37 38 39 42 40 38 37 37 36 38 38 34
41 41 39 40 42 42 43 44 43 44 47 52 53 54 54 53 55 56 58 57 57 51 55 52 51 48 50 48 49 39 37 35 37 37 40 39 37 39 39 37 36 38 40 39
42 41 41 43 43 44 44 47 49 50 52 52 52 54 54 55 55 54 56 57 56 57 54 55 52 48 47 47 44 38 36 37 39 40 39 39 40 38 39 39 38 39 39 40
43 42 41 42 43 43 46 48 51 52 51 50 50 52 52 53 53 53 54 53 56 53 58 56 53 53 50 53 46 44 41 42 44 45 45 43 40 40 41 41 40 40 40 41
44 43 42 42 43 44 43 44 48 49 46 49 45 46 46 43 50 48 48 52 52 50 49 49 52 53 53 51 49 48 46 47 46 45 44 44 45 44 43 44 43 42 45 44
47 46 46 43 43 46 45 51 45 50 48 51 50 43 41 37 36 36 41 49 47 46 44 48 49 52 52 52 53 53 53 52 52 54 53 46 46 45 45 46 45 45 46 43
49 47 47 45 46 45 50 50 46 48 47 45 43 45 46 42 38 37 42 43 46 44 41 47 49 50 44 44 47 49 52 52 53 54 54 53 51 50 50 47 47 47 48 47
49 42 41 47 41 42 41 43 41 43 41 38 42 40 37 38 39 38 39 43 42 45 41 42 45 45 44 43 44 46 47 48 51 53 53 54 54 53 53 52 52 50 51 49
45 43 42 42 42 41 38 42 43 37 36 36 35 37 36 35 40 39 42 39 41 42 39 38 39 41 42 42 43 46 45 46 48 52 53 54 54 53 54 54 54 53 52 52
Lifted_Index
0 0 0 0 0 -0 -1 -0 -0 -1 -2 -3 -4 -4 -5 -6 -6 -5 -4 -3 -3 -4 -5 -5 -6 -5 -4 -4 -3 -2 -2 -2 -2 -2 -3 -3 -3 -3 -3 -3 -4 -4 -4 -4
-0 0 0 0 0 -0 -0 -0 -0 -1 -2 -3 -3 -3 -4 -6 -7 -6 -4 -4 -4 -4 -5 -5 -5 -5 -4 -3 -2 -2 -2 -2 -2 -2 -2 -2 -3 -3 -3 -3 -3 -3 -3 -3
-0 -0 -0 0 -0 -0 -0 -1 -1 -2 -3 -3 -1 -0 -2 -5 -7 -6 -5 -4 -4 -4 -5 -5 -5 -4 -3 -3 -2 -2 -2 -2 -2 -2 -1 -1 -2 -2 -2 -2 -2 -3 -3 -2
-1 -0 -0 -0 -0 -0 -0 -1 -2 -3 -4 -3 -1 -0 -2 -5 -6 -6 -5 -4 -4 -5 -5 -5 -5 -4 -3 -3 -2 -2 -2 -3 -2 -1 -1 -0 -1 -1 -1 -1 -2 -2 -1 -1
-1 -1 -1 -1 -1 0 0 -1 -2 -3 -3 -2 -1 -2 -3 -5 -5 -5 -4 -4 -4 -4 -4 -5 -4 -4 -3 -3 -2 -2 -2 -2 -2 -1 -0 0 0 -0 -0 -0 -0 0 1 1
-2 -1 -1 -1 -1 0 0 -0 -1 -2 -2 -2 -2 -3 -3 -4 -4 -4 -4 -3 -3 -3 -4 -4 -4 -4 -3 -3 -2 -2 -2 -2 -1 -1 -0 0 0 0 1 1 1 2 2 2
-1 -1 -1 -1 -0 -0 -0 -1 -1 -1 -2 -2 -3 -3 -4 -4 -4 -3 -3 -2 -2 -2 -3 -3 -3 -3 -3 -2 -1 -1 -1 -1 -1 -1 -1 -0 -0 0 1 1 2 2 2 2
-1 -1 -1 -1 -0 -1 -1 -2 -2 -2 -3 -3 -4 -4 -4 -4 -3 -3 -2 -2 -2 -2 -2 -2 -2 -2 -2 -1 -1 -1 -1 -1 -1 -1 -0 -0 -0 -0 1 1 1 1 1 1
-1 -1 -1 -1 -1 -1 -2 -2 -2 -3 -4 -4 -4 -4 -4 -3 -3 -2 -2 -2 -1 -2 -1 -1 -1 -0 -0 0 0 -0 -0 -1 -1 -0 1 1 1 1 1 1 1 2 2 2
-1 -1 -1 -1 -1 -1 -2 -2 -2 -3 -4 -4 -4 -3 -3 -3 -2 -2 -1 -1 -1 -0 -0 1 2 2 2 2 3 2 2 2 2 2 3 3 3 2 2 2 2 3 3 4
-1 -1 -2 -1 -1 -1 -1 -1 -2 -3 -4 -4 -4 -3 -2 -2 -2 -1 -1 0 1 2 3 4 5 6 5 5 5 5 5 5 5 5 6 6 5 5 4 4 4 5 6 6
-2 -2 -2 -2 -1 -1 -1 -1 -1 -2 -4 -4 -3 -3 -2 -2 -2 -1 0 2 3 4 5 6 7 7 7 6 6 6 7 7 7 7 8 8 8 8 8 7 7 7 8 9
-2 -2 -2 -2 -1 -1 -0 -0 -1 -2 -3 -4 -3 -2 -2 -2 -2 -1 1 3 5 5 6 6 7 7 7 7 7 7 8 8 8 8 9 10 10 11 11 11 10 11 12 13
-1 -1 -1 -1 -1 -0 -0 -0 -1 -1 -3 -3 -3 -2 -2 -2 -1 -0 1 3 5 5 6 6 6 7 7 8 8 8 9 10 10 10 10 10 11 12 13 13 13 14 15 16
0 0 0 0 0 -0 -0 -0 -0 -1 -2 -3 -2 -1 -1 -1 -1 -0 2 3 4 4 5 5 5 6 7 8 8 9 9 10 10 10 10 10 10 11 11 12 12 14 15 15
1 1 2 1 1 1 1 1 0 -1 -2 -3 -2 -1 -1 -1 -0 1 2 2 3 3 4 4 5 5 6 7 8 9 10 10 10 11 11 11 10 10 11 11 11 12 13 13
2 2 2 2 2 2 2 2 1 -0 -2 -3 -2 -2 -1 -1 -0 0 1 2 2 2 3 4 5 5 6 7 8 9 10 10 11 11 11 10 10 10 10 10 10 10 11 12
3 3 3 3 2 2 2 2 1 1 -1 -2 -2 -2 -2 -2 -1 -1 -0 0 0 1 2 3 4 5 6 7 7 8 9 9 10 10 10 9 9 9 9 9 10 10 10 10
3 3 3 3 3 2 2 2 1 1 -0 -1 -2 -2 -2 -2 -2 -2 -2 -1 -1 -0 1 2 3 4 5 6 6 7 8 8 9 9 8 8 8 8 8 9 9 9 9 8
3 3 3 3 2 2 1 1 1 1 0 -1 -1 -1 -1 -1 -2 -2 -2 -2 -2 -1 -0 1 2 3 3 4 5 6 7 7 7 7 7 7 7 7 8 8 8 7 7 7
3 3 3 3 2 2 1 1 1 0 0 0 0 -0 -0 -0 -1 -1 -2 -2 -2 -1 -1 -0 1 1 2 3 4 4 5 5 5 5 6 6 6 6 6 6 6 6 6 6
3 3 3 3 2 2 1 1 1 1 1 1 1 1 1 1 0 -0 -0 -1 -1 -1 -1 -0 -0 0 1 2 2 3 3 3 3 4 4 4 5 5 5 5 5 5 5 5
2 3 3 3 3 2 2 1 1 1 1 2 2 2 2 2 2 2 1 1 1 1 1 1 1 1 1 1 1 1 2 2 2 2 3 3 3 4 4 4 4 4 4 4
2 3 3 3 3 2 2 2 2 2 2 2 3 3 3 4 4 4 3 2 2 2 2 2 2 2 1 1 1 1 1 1 1 1 1 2 2 2 2 3 3 3 3 3
2 2 3 3 3 2 2 2 2 2 3 3 3 3 3 4 4 4 4 3 3 3 3 3 3 3 2 2 2 1 1 1 0 0 0 0 1 1 1 1 2 2 2 2
2 2 3 3 2 2 2 2 2 3 3 3 3 3 3 3 4 4 4 4 3 3 3 3 3 3 3 2 2 2 2 1 1 0 -0 -0 -0 0 0 0 1 1 1 2
2 2 2 2 2 2 2 2 2 3 3 3 3 3 3 3 3 4 4 3 3 3 3 3 3 3 3 2 2 2 2 2 1 1 0 -0 -0 -0 -0 -0 0 1 1 1